[[{"header":{"parameterUnit":"m.s-1","parameterCategory":1,"la1":30.2991,"la2":30.254,"lo1":-89.0895,"lo2":-89.0444,"dy":0.0017,"dx":0.0017,"nx":28,"ny":28,"refTime":"2024-09-30T21:00:00:Z","depth":0,"parameterNumber":2,"parameterNumberName":"U-component_of_WINDS"},"data":[0,0,0,0,0,0,0,0,0,0,0,0,0,0,0,0,0,0,0,0,0,0,0,0,0,0,0,0,0,0,0,0,0,0,0,0,0,0,0,0,0,0,0,0,0,0,0,0,0,0,0,0,0,0,0,0,0,0,-1.9899,-1.99,0,-1.9918,-1.9918,-1.9918,-1.9909,-1.9908,-1.9908,-1.9907,-1.9925,-1.9926,-1.9927,0,0,0,0,0,0,0,0,0,0,0,0,0,-1.9855,-1.9856,-1.9899,-1.99,-1.99,-1.9918,-1.9918,-1.9918,-1.9909,-1.9908,-1.9907,-1.9907,-1.9925,-1.9926,-1.9927,0,0,0,0,0,0,0,0,0,0,0,0,0,-1.9874,-1.9856,-1.9899,-1.9897,-1.9897,-1.9918,-1.9918,-1.9918,-1.9909,-1.9908,-1.9907,-1.9907,-1.9925,-1.9926,-1.9927,-1.9951,0,0,-1.9932,-1.9932,0,0,0,0,0,0,0,0,-1.9873,-1.9875,-1.9897,-1.9897,-1.9897,-1.991,-1.9909,-1.9929,-1.9909,-1.9904,-1.9907,-1.9906,-1.9921,-1.9922,-1.9927,-1.9952,-1.9953,-1.9932,-1.9933,-1.9933,-1.9934,0,0,0,0,0,0,0,-1.9871,-1.9875,-1.9907,-1.9898,-1.9898,-1.9895,-1.9897,-1.9913,-1.9916,-1.9905,-1.9904,-1.9906,-1.9921,-1.9926,-1.9928,-1.9953,-1.9932,-1.9933,-1.9934,-1.9934,-1.9998,-1.9999,0,0,0,0,0,0,-1.987,-1.9874,-1.9906,-1.9907,-1.9883,-1.9896,-1.9899,-1.9907,-1.9916,-1.9917,-1.9907,-1.9906,-1.9924,-1.9926,-1.9928,-1.9957,-1.9933,-1.9935,-1.9935,-1.9997,-1.9998,-1.9999,0,0,0,0,0,0,-1.9869,-1.9873,-1.9905,-1.989,-1.9894,-1.9898,-1.9907,-1.9908,-1.9913,-1.9918,-1.9919,-1.9912,-1.9924,-1.9926,-1.9946,-1.9958,-1.9935,-1.9936,-1.9996,-1.9997,-1.9998,-2.0015,0,0,0,0,0,0,-1.9868,-1.9873,-1.9882,-1.9891,-1.9895,-1.9922,-1.9908,-1.9908,-1.9916,-1.9914,-1.9923,-1.9924,-1.9923,-1.9944,-1.9947,-1.9959,-1.9938,-1.9995,-1.9997,-1.9998,-2.0013,-2.0016,-2.0019,0,0,0,0,0,-1.9867,-1.9886,-1.9883,-1.9887,-1.9907,-1.9923,-1.9926,-1.9925,-1.9917,-1.9926,-1.9929,-1.9923,-1.9956,-1.9946,-1.9949,-1.9962,-1.9994,-1.9996,-1.9998,-2.0012,-2.0016,-2.0019,0,0,0,0,0,0,-1.9878,-1.9887,-1.9884,-1.9906,-1.9914,-1.9922,-1.9933,-1.9929,-1.994,-1.9938,-1.9936,-1.9938,-1.9958,-1.9962,-1.9951,-1.9986,-1.9974,-1.9976,-1.9983,-1.9987,-1.999,-1.9989,-1.9939,0,0,0,0,0,-1.9884,-1.9897,-1.9903,-1.9922,-1.9927,-1.9929,-1.9936,-1.9935,-1.9943,-1.9947,-1.9951,-1.9959,-1.9971,-1.9979,-1.999,-2.0013,-2.0015,-2.0024,-2.0027,-2.003,-2.0032,-2.0045,-2.0049,-2.0005,-2.0005,-2.0005,0,0,-1.9895,-1.9901,-1.9909,-1.9925,-1.9931,-1.9945,-1.9932,-1.9947,-1.9957,-1.9949,-1.9967,-1.9971,-1.9979,-2.0001,-2.0011,-2.0005,-2.0045,-2.0032,-2.0034,-2.0035,-2.0048,-2.0052,-2.0055,-2.0006,-2.0006,-2.0006,0,0,-1.9922,-1.9927,-1.9944,-1.9951,-1.996,-1.9962,-1.9966,-1.9974,-1.9976,-1.9995,-1.999,-2.0001,-2.0022,-2.0028,-2.0034,-2.0064,-2.0059,-2.0067,-2.0083,-2.0096,-2.01,-2.0103,-2.0114,-2.0118,-2.007,-2.007,-2.007,0,-1.9934,-1.9954,-1.9954,-1.9969,-1.9976,-1.997,-1.9987,-1.9993,-2.0006,-2.0011,-2.0004,-2.003,-2.0035,-2.0058,-2.0066,-2.007,-2.0075,-2.0067,-2.0099,-2.0102,-2.0105,-2.0116,-2.012,-2.0071,-2.0071,-2.0071,-2.0071,0,-1.9969,-1.9984,-1.9996,-2.0009,-2.0017,-2.0034,-2.0035,-2.0044,-2.0042,-2.0044,-2.0063,-2.0069,-2.0082,-2.0087,-2.0085,-2.011,-2.0106,-2.0099,-2.0087,-2.0111,-2.0121,-2.0125,-2.0072,-2.0072,-2.0072,-2.0071,0,0,-2.0005,-2.0017,-2.0022,-2.0028,-2.0038,-2.0049,-2.0064,-2.0077,-2.0085,-2.0093,-2.0107,-2.0124,-2.0118,-2.0125,-2.0124,-2.0135,-2.0159,-2.0127,-2.0127,-2.0133,-2.0187,-2.0193,-2.0198,-2.0155,-2.0156,-2.0157,-2.0187,0,-2.0033,-2.0061,-2.0061,-2.0087,-2.01,-2.0094,-2.0108,-2.0116,-2.0118,-2.013,-2.0132,-2.0145,-2.0135,-2.014,-2.015,-2.0154,-2.017,-2.0151,-2.0168,-2.0169,-2.0167,-2.0203,-2.0209,-2.0237,-2.0191,-2.0191,-2.0192,0,-2.007,-2.008,-2.0108,-2.0116,-2.0122,-2.0134,-2.0146,-2.0157,-2.0166,-2.0167,-2.0174,-2.0171,-2.0187,-2.0174,-2.0197,-2.0184,-2.0191,-2.0193,-2.0194,-2.0196,-2.0182,-2.0206,-2.0246,-2.025,-2.0198,-2.0197,-2.0197,0,-2.0093,-2.0114,-2.0134,-2.0139,-2.0149,-2.0158,-2.0163,-2.0171,-2.0178,-2.0188,-2.0194,-2.0205,-2.0212,-2.0221,-2.0221,-2.0211,-2.0244,-2.023,-2.0245,-2.0245,-2.0253,-2.0252,-2.0294,-2.0256,-2.0256,-2.0256,-2.0256,0,-2.0125,-2.0143,-2.0145,-2.0157,-2.0176,-2.0175,-2.0194,-2.0198,-2.0205,-2.0217,-2.0212,-2.0224,-2.0224,-2.0236,-2.0236,-2.0254,-2.0257,-2.0259,-2.0259,-2.0259,-2.0259,-2.0264,-2.0263,-2.0257,-2.0257,-2.0256,-2.0256,0,-2.0155,-2.0158,-2.0178,-2.0187,-2.0189,-2.0203,-2.021,-2.0221,-2.0223,-2.0239,-2.0243,-2.0246,-2.026,-2.0261,-2.0276,-2.0277,-2.0299,-2.0297,-2.0297,-2.0297,-2.0312,-2.0311,-2.0359,-2.0365,-2.0322,-2.0322,-2.0323,0,-2.0176,-2.0189,-2.0199,-2.0207,-2.0213,-2.0226,-2.0234,-2.0234,-2.0242,-2.0253,-2.0263,-2.0277,-2.0287,-2.031,-2.0313,-2.0325,-2.0324,-2.034,-2.0325,-2.0326,-2.0325,-2.0324,-2.0326,-2.0343,-2.0343,-2.0344,-2.0344,0,-2.0213,-2.0213,-2.0225,-2.0238,-2.0248,-2.0258,-2.0267,-2.0274,-2.0274,-2.0284,-2.0299,-2.0307,-2.0323,-2.0337,-2.0349,-2.0353,-2.0349,-2.0348,-2.0352,-2.0354,-2.0354,-2.0355,-2.0305,-2.0347,-2.0347,-2.0347,-2.0346,-2.0346,-2.0239,-2.0251,-2.026,-2.0273,-2.028,-2.0289,-2.03,-2.0304,-2.0316,-2.033,-2.0329,-2.0345,-2.0353,-2.0368,-2.0374,-2.0386,-2.0381,-2.0387,-2.0388,-2.039,-2.0392,-2.0351,-2.0388,-2.0388,-2.0388,-2.0388,-2.0388,0,-2.0276,-2.0282,-2.0294,-2.0308,-2.0318,-2.0313,-2.0323,-2.0333,-2.0347,-2.0355,-2.0366,-2.0382,-2.0396,-2.04,-2.0413,-2.0422,-2.0421,-2.0426,-2.0425,-2.0427,-2.0396,-2.0391,-2.0427,-2.0427,-2.0427,-2.0427,-2.0427,-2.0427,-2.0297,-2.0317,-2.0318,-2.0341,-2.0347,-2.0363,-2.0369,-2.0377,-2.0383,-2.0402,-2.0413,-2.0417,-2.0423,-2.0437,-2.0448,-2.0449,-2.0455,-2.0461,-2.0461,-2.0432,-2.0429,-2.0425,-2.0421,-2.0462,-2.0462,-2.0491,-2.0491,-2.0491]},{"header":{"parameterUnit":"m.s-1","parameterCategory":1,"la1":30.2991,"la2":30.254,"lo1":-89.0895,"lo2":-89.0444,"dy":0.0017,"dx":0.0017,"nx":28,"ny":28,"refTime":"2024-09-30T21:00:00:Z","depth":0,"parameterNumber":3,"parameterNumberName":"V-component_of_WINDS"},"data":[0,0,0,0,0,0,0,0,0,0,0,0,0,0,0,0,0,0,0,0,0,0,0,0,0,0,0,0,0,0,0,0,0,0,0,0,0,0,0,0,0,0,0,0,0,0,0,0,0,0,0,0,0,0,0,0,0,0,-3.5838,-3.5838,0,-3.5832,-3.5832,-3.5832,-3.5774,-3.5772,-3.5771,-3.5769,-3.5762,-3.5763,-3.5765,0,0,0,0,0,0,0,0,0,0,0,0,0,-3.58,-3.5801,-3.5838,-3.5838,-3.5838,-3.5832,-3.5832,-3.5832,-3.5774,-3.5772,-3.577,-3.5769,-3.5762,-3.5763,-3.5765,0,0,0,0,0,0,0,0,0,0,0,0,0,-3.5807,-3.5801,-3.5838,-3.5808,-3.5806,-3.5832,-3.5832,-3.5832,-3.5774,-3.5772,-3.577,-3.5768,-3.5761,-3.5763,-3.5765,-3.5819,0,0,-3.577,-3.5771,0,0,0,0,0,0,0,0,-3.5807,-3.5809,-3.5813,-3.5811,-3.5808,-3.5801,-3.5816,-3.5827,-3.5775,-3.5786,-3.5769,-3.5767,-3.5777,-3.5777,-3.5781,-3.5819,-3.5818,-3.577,-3.5771,-3.5772,-3.5773,0,0,0,0,0,0,0,-3.5807,-3.5809,-3.5836,-3.5813,-3.581,-3.5795,-3.5794,-3.5818,-3.5794,-3.5785,-3.5781,-3.5781,-3.5775,-3.5779,-3.578,-3.5818,-3.577,-3.5772,-3.5773,-3.5774,-3.5901,-3.5904,0,0,0,0,0,0,-3.581,-3.5809,-3.5836,-3.5835,-3.5802,-3.5798,-3.5796,-3.5805,-3.5793,-3.5789,-3.5783,-3.5778,-3.5777,-3.5778,-3.578,-3.5843,-3.5772,-3.5774,-3.5775,-3.5899,-3.5902,-3.5904,0,0,0,0,0,0,-3.581,-3.5813,-3.5836,-3.5821,-3.5823,-3.5801,-3.5812,-3.5806,-3.5811,-3.5792,-3.5787,-3.5791,-3.5776,-3.5777,-3.581,-3.5842,-3.5775,-3.5776,-3.5896,-3.59,-3.5903,-3.5971,0,0,0,0,0,0,-3.5809,-3.5813,-3.5834,-3.5822,-3.5824,-3.5867,-3.5813,-3.5808,-3.5814,-3.5808,-3.5799,-3.5795,-3.5774,-3.5808,-3.5812,-3.5844,-3.5777,-3.5893,-3.5898,-3.5902,-3.5966,-3.5976,-3.5985,0,0,0,0,0,-3.5808,-3.5853,-3.5835,-3.5839,-3.5849,-3.5869,-3.587,-3.5845,-3.5817,-3.5837,-3.5825,-3.5795,-3.5838,-3.5812,-3.5816,-3.5848,-3.5891,-3.5897,-3.5902,-3.5961,-3.5974,-3.5985,0,0,0,0,0,0,-3.5868,-3.585,-3.5831,-3.5873,-3.5873,-3.5859,-3.5884,-3.5859,-3.5867,-3.5861,-3.5829,-3.5828,-3.5866,-3.586,-3.5831,-3.5901,-3.5859,-3.5866,-3.5903,-3.5915,-3.5925,-3.5926,-3.5779,0,0,0,0,0,-3.5887,-3.5904,-3.5888,-3.5927,-3.5927,-3.5906,-3.5913,-3.5895,-3.5893,-3.5892,-3.5883,-3.5882,-3.5895,-3.5905,-3.5916,-3.5964,-3.5962,-3.5989,-3.5999,-3.6007,-3.6013,-3.6039,-3.6051,-3.5922,-3.5922,-3.5922,0,0,-3.5924,-3.5917,-3.593,-3.5939,-3.5936,-3.5956,-3.5906,-3.5928,-3.5942,-3.5896,-3.5926,-3.5919,-3.5917,-3.5958,-3.5975,-3.5954,-3.6048,-3.6013,-3.602,-3.6022,-3.6046,-3.6058,-3.6069,-3.5925,-3.5925,-3.5924,0,0,-3.6004,-3.5999,-3.6032,-3.6031,-3.6028,-3.6014,-3.6022,-3.6011,-3.6005,-3.6035,-3.6001,-3.6017,-3.6041,-3.6041,-3.6044,-3.6124,-3.6098,-3.6129,-3.618,-3.6207,-3.6217,-3.6226,-3.6256,-3.6267,-3.6135,-3.6135,-3.6135,0,-3.6051,-3.6079,-3.6052,-3.6077,-3.6082,-3.6041,-3.6075,-3.6074,-3.6075,-3.608,-3.6056,-3.6086,-3.6081,-3.6122,-3.6142,-3.6145,-3.6154,-3.613,-3.6217,-3.6226,-3.6234,-3.6262,-3.6274,-3.6139,-3.6138,-3.6138,-3.6137,0,-3.6138,-3.6158,-3.6185,-3.6188,-3.6196,-3.6225,-3.6202,-3.6214,-3.6194,-3.6182,-3.6214,-3.6207,-3.6217,-3.6225,-3.6206,-3.6264,-3.6251,-3.6223,-3.6181,-3.6251,-3.6277,-3.6288,-3.6144,-3.6143,-3.6142,-3.6141,0,0,-3.6256,-3.6244,-3.6254,-3.6256,-3.625,-3.6265,-3.6292,-3.6302,-3.6313,-3.6315,-3.6338,-3.6359,-3.6333,-3.6337,-3.6317,-3.634,-3.6406,-3.6309,-3.6309,-3.6329,-3.6471,-3.6494,-3.6507,-3.6388,-3.639,-3.6391,-3.6472,0,-3.6333,-3.638,-3.6357,-3.6406,-3.6425,-3.6387,-3.641,-3.641,-3.64,-3.6414,-3.6402,-3.6418,-3.6382,-3.6384,-3.6405,-3.6394,-3.6435,-3.6387,-3.641,-3.6411,-3.6413,-3.652,-3.6543,-3.662,-3.6482,-3.6484,-3.6485,0,-3.643,-3.6437,-3.6489,-3.6481,-3.6488,-3.651,-3.6518,-3.6532,-3.6531,-3.6521,-3.6526,-3.6502,-3.6528,-3.6486,-3.6523,-3.6491,-3.6499,-3.6495,-3.6497,-3.6499,-3.6453,-3.6526,-3.6643,-3.6655,-3.65,-3.6499,-3.6498,0,-3.6512,-3.6535,-3.6569,-3.6571,-3.6562,-3.6579,-3.6576,-3.6573,-3.658,-3.6587,-3.6592,-3.6602,-3.6607,-3.6615,-3.6594,-3.6565,-3.6634,-3.659,-3.6628,-3.6629,-3.6645,-3.6645,-3.6767,-3.6648,-3.6648,-3.6648,-3.6648,0,-3.6602,-3.6636,-3.6606,-3.6627,-3.6664,-3.6637,-3.6674,-3.6667,-3.6664,-3.6684,-3.665,-3.6669,-3.6639,-3.6655,-3.6639,-3.6673,-3.6675,-3.6669,-3.6664,-3.6673,-3.6674,-3.6678,-3.6673,-3.6651,-3.665,-3.6649,-3.6649,0,-3.67,-3.6682,-3.6717,-3.6706,-3.6704,-3.6732,-3.6723,-3.6742,-3.673,-3.6755,-3.6759,-3.674,-3.6757,-3.6736,-3.6751,-3.674,-3.6787,-3.6773,-3.6788,-3.6784,-3.6824,-3.6821,-3.6954,-3.6971,-3.6841,-3.6842,-3.6843,0,-3.676,-3.6785,-3.6777,-3.6788,-3.6788,-3.6805,-3.6813,-3.6788,-3.6797,-3.6798,-3.6818,-3.6833,-3.6843,-3.6872,-3.686,-3.6871,-3.6859,-3.6905,-3.686,-3.6869,-3.6861,-3.6861,-3.6864,-3.6914,-3.6916,-3.6917,-3.6918,0,-3.6867,-3.6857,-3.687,-3.6881,-3.6892,-3.6899,-3.6903,-3.6914,-3.6887,-3.69,-3.6918,-3.6926,-3.6942,-3.6957,-3.6966,-3.6962,-3.6937,-3.6932,-3.6942,-3.6951,-3.6959,-3.6957,-3.6814,-3.6929,-3.6928,-3.6927,-3.6927,-3.6926,-3.6949,-3.697,-3.6968,-3.6985,-3.6985,-3.6991,-3.7009,-3.6999,-3.7013,-3.7025,-3.7008,-3.7031,-3.7029,-3.7038,-3.7038,-3.7055,-3.7036,-3.7049,-3.7053,-3.7057,-3.7064,-3.6955,-3.7056,-3.7056,-3.7056,-3.7055,-3.7055,0,-3.7056,-3.7053,-3.7068,-3.7076,-3.7089,-3.7064,-3.7067,-3.708,-3.71,-3.7101,-3.7113,-3.7134,-3.7148,-3.7137,-3.715,-3.7166,-3.7154,-3.717,-3.7169,-3.7169,-3.708,-3.7071,-3.7179,-3.7179,-3.7179,-3.7179,-3.7179,-3.7179,-3.7113,-3.7148,-3.7138,-3.7174,-3.717,-3.7193,-3.7197,-3.7202,-3.7203,-3.7228,-3.724,-3.7233,-3.7229,-3.7241,-3.7254,-3.725,-3.7257,-3.7278,-3.727,-3.7187,-3.7175,-3.7164,-3.7155,-3.7279,-3.7279,-3.7358,-3.7358,-3.7359]}]]